CZ-6A DEB

Satellite information

Favourite Embed

Satellite Type and Status

DEBRISIN ORBIT

Key statistics

Satellite CZ-6A DEB at a glance.

Uptime

1073

Days in orbit

Revolutions

≈ 14.2

Per day

Orbit

SSO

Sun Synchronous Orbit

Inclination

98.9

Latest

Satellite identification and parameters

Extended collection of information and parameters for CZ-6A DEB.

Object identification

Identified? True

Debris? True

Object name: CZ-6A DEB

International designator: 2022-151P

Object number (NORAD): 54272

Object ID (CCSDS): 54272

Country: PEOPLES REPUBLIC OF CHINA (PRC)

Current information (Y/N): Y

RCS size: SMALL

Orbital parameters

Period: 101.281 minutes

Inclination: 98.869 deg

SMA: 7197.44 km

Apoapsis: 840.423 km

Periapsis: 798.188 km

RAAN: 320.1444 deg

Eccentricy: 0.00293405

Argument of periapsis: 153.0015 deg

Mean anomaly: 207.2696 deg

Mean motion: 14.21790698 rev/day

Mean motion (dot): 0.00001551 rev/day2

B* drag term: 0.00072182753 1/REarth

Two-line elements (TLE)

Creation date: Oct. 19, 2025, 2:20 a.m.

Reference frame: TEME

Reference center: EARTH

Epoch: Oct. 18, 2025, 6:48 p.m. UTC

TLE line 0: 0 CZ-6A DEB

TLE line 1: 1 54272U 22151P 25291.78372497 .00001551 00000-0 72183-3 0 9993

TLE line 2: 2 54272 98.8690 320.1444 0029340 153.0015 207.2696 14.21790698151852

Live tracking on map

Real-time ground track for satellite CZ-6A DEB.

In-orbit conjunctions

A list of the most updated potential collisions computed for object CZ-6A DEB.

Target Orbit TCA Probability of collision Miss distance Type
CZ-6A DEB LEO 2025-04-27 17:30:20 0.0001033642 281.0 (m) DEBRIS
SCOUT A DEB SSO 2025-04-11 13:13:57 0.0001018796 191.0 (m) DEBRIS
BLITS SSO 2024-10-01 01:06:32 0.0001020313 593.0 (m) PAYLOAD

Associated space launch

Chinese satellite reported for atmospheric/ocean/environmental/spatial parameter research purposes, details TBD.

CZ-6A DEB was lifted into orbit during the mission ‘Long March 6A | Yunhai 3’, on board a Long March 6A space rocket.

The launch took place on Nov. 11, 2022, 10:52 p.m. from Launch Complex 9A.

For more information about the launch, click the button.

Launch to space Long March 6A | Yunhai 3
Long March 6A | Yunhai 3

Agency: N/A

Status: Launch Successful

Launch date: Nov. 11, 2022, 10:52 p.m. UTC

Rocket: Long March 6A

Launch pad: Launch Complex 9A

Location: Taiyuan Satellite Launch Center, People's Republic of China

...

Latest news about this satellite

There are no fresh news available about this satellite. Check back as we update our databases every day.


Newsletter sign-up

Weekly statistics, charts and insights to help you stay on top of the space industry.